Station PNLM4 - 9087096 - Port Inland, MI Image indicating link to RSS feed of recent meteorological observations for station PNLM4


Conditions at PNLM4 as of
(9:18 pm EDT on 07/17/2024)
0118 GMT on 07/18/2024:
     

Click on the graph icon in the table below to see a time series plot of the last five days of that observation.

5-day plot - Wind Direction Wind Direction (WDIR):NNW ( 330 deg true )
5-day plot - Wind Speed Wind Speed (WSPD): 8.0 kts
5-day plot - Wind Gust Wind Gust (GST): 12.0 kts
5-day plot - Atmospheric Pressure Atmospheric Pressure (PRES):30.03 in
5-day plot - Air Temperature Air Temperature (ATMP): 59.4 °F
5-day plot - Water Temperature Water Temperature (WTMP): 63.9 °F
5-day plot - Wind Speed at 10 Meters Wind Speed at 10 meters (WSPD10M): 7.8 kts
5-day plot - Wind Speed at 20 Meters Wind Speed at 20 meters (WSPD20M): 9.7 kts
5-day plot -  Wind Speed, Wind Gust and Atmospheric Pressure Combined plot of Wind Speed, Gust, and Air Pressure
NOS Water Level Observation Network Water Level
Previous observations
TIME
(EDT)
5-day plot - Wind Direction
WDIR
 
5-day plot - Wind Speed
WSPD
kts
5-day plot - Wind Gust
GST
kts
5-day plot - Wave Height
WVHT
ft
5-day plot - Dominant Wave Period
DPD
sec
5-day plot - Average Wave Period
APD
sec
5-day plot - Mean Wave Direction
MWD
 
5-day plot - Atmospheric Pressure
PRES
in
5-day plot - Pressure Tendency
PTDY
in
5-day plot - Air Temperature
ATMP
°F
5-day plot - Water Temperature
WTMP
°F
5-day plot - Dew Point
DEWP
°F
5-day plot - Salinity
SAL
psu
5-day plot - Visibility
VIS
nmi
5-day plot - Tide (above MLLW)
TIDE
ft
2024-07-17 09:12 pmNNW 7.0 11.1----30.03- 59.5 64.0----
2024-07-17 09:06 pmNNW 8.0 9.9----30.03- 59.7 64.0----
2024-07-17 09:00 pmNNW 8.0 11.1----30.03- 60.1 64.0----
2024-07-17 08:54 pm N 7.0 11.1----30.02- 60.1 64.0----
2024-07-17 08:48 pm N 6.0 9.9----30.02- 60.1 64.0----
2024-07-17 08:42 pm N 8.0 12.0----30.02- 60.3 64.0----
2024-07-17 08:36 pm N 8.9 14.0----30.02- 60.3 64.0----
2024-07-17 08:30 pm N 8.9 19.0----30.02- 60.4 64.2----
2024-07-17 08:24 pm N 12.0 22.0----30.02- 60.4 64.2----
2024-07-17 08:18 pmNNW 12.0 18.1----30.02- 60.6 64.2----
2024-07-17 08:12 pmNNW 12.0 15.9----30.01- 60.6 64.2----
2024-07-17 08:06 pmNNW 9.9 15.0----30.01- 61.2 64.2----
2024-07-17 08:00 pm N 11.1 15.9----30.01+0.04 61.3 64.2----
2024-07-17 07:54 pm N 11.1 15.0----30.01- 60.8 64.2----
2024-07-17 07:48 pm N 8.0 17.1----30.01- 60.6 64.4----
2024-07-17 07:42 pm N 12.0 18.1----30.01- 60.6 64.4----
2024-07-17 07:36 pmNNW 8.9 20.0----30.01- 61.2 64.4----
2024-07-17 07:30 pm N 15.9 25.1----30.01- 61.5 64.4----
2024-07-17 07:24 pmNNW 11.1 17.1----30.00- 61.3 64.4----
2024-07-17 07:18 pm N 13.0 19.0------- 64.4----
2024-07-17 07:12 pm N 14.0 25.1------- 64.4----
2024-07-17 07:06 pmNNW 15.9 21.0------- 64.4----
2024-07-17 07:00 pmNNW 13.0 21.0------- 64.6----
2024-07-17 06:54 pmNNW 12.0 20.0------- 64.6----
2024-07-17 06:48 pmNNW 13.0 19.0----29.99- 62.4 64.6----
2024-07-17 06:42 pmNNW 12.0 19.0----29.99- 62.4 64.6----
2024-07-17 06:36 pmNNW 13.0 20.0----29.99- 62.1 64.6----
2024-07-17 06:30 pmNNW 15.9 22.0----29.99- 62.6 64.6----
2024-07-17 06:24 pm NW 12.0 17.1----29.99- 62.6 64.6----
2024-07-17 06:18 pm-------29.99-- 64.6----
2024-07-17 06:12 pm-------29.98-- 64.8----
2024-07-17 06:06 pm-------29.98-- 64.8----
2024-07-17 06:00 pmNNW 15.9 22.9------ 63.1 64.8----
2024-07-17 05:54 pmNNW 15.0 20.0------ 62.8 64.8----
2024-07-17 05:48 pmNNW 14.0 19.0----29.98- 62.6 64.8----
2024-07-17 05:42 pm N 14.0 21.0----29.98- 63.0 64.8----
2024-07-17 05:36 pm NW 12.0 20.0----29.98- 63.7 64.8----
2024-07-17 05:30 pmNNW 13.0 19.0----29.97- 64.0 64.8----
2024-07-17 05:24 pmNNW 11.1 17.1----29.97- 64.0 64.9----
2024-07-17 05:18 pmNNW 14.0 21.0----29.97- 63.0 64.9----
2024-07-17 05:12 pmNNW 11.1 18.1----29.97- 62.8 64.9----
2024-07-17 05:06 pmNNW 13.0 22.9----29.97- 62.4 64.9----
2024-07-17 05:00 pmNNW 12.0 19.0----29.97+0.06 62.6 64.9----
2024-07-17 04:54 pmNNW 13.0 18.1----29.97- 62.2 64.9----
2024-07-17 04:48 pmNNW 12.0 19.0----29.97- 62.2 64.9----
2024-07-17 04:42 pmNNW 15.0 22.0----29.97- 62.2 64.9----
2024-07-17 04:36 pmNNW 14.0 20.0----29.96- 62.2 65.1----
2024-07-17 04:30 pmNNW 15.0 21.0----29.96- 62.1 65.1----
2024-07-17 04:24 pmNNW 15.0 22.0----29.96- 62.1 65.1----
2024-07-17 04:18 pmNNW 15.0 21.0----29.96- 62.6 65.1----
2024-07-17 04:12 pmNNW 14.0 22.9----29.96- 62.6 65.1----
2024-07-17 04:06 pmNNW 13.0 22.9----29.95- 63.3 65.1----
2024-07-17 04:00 pmNNW 14.0 22.0----29.95+0.05 63.5 65.1----
2024-07-17 03:54 pmNNW 17.1 24.1----29.94- 63.7 65.1----
2024-07-17 03:48 pmNNW 15.0 26.0----29.94- 64.4 65.1----
2024-07-17 03:42 pmNNW 15.9 22.0----29.93- 65.3 65.1----
2024-07-17 03:36 pmNNW 17.1 22.9----29.93- 65.8 65.3----
2024-07-17 03:30 pmNNW 13.0 22.0----29.93- 65.7 65.3----
2024-07-17 03:24 pmNNW 14.0 22.9----29.93- 64.9 65.3----
2024-07-17 03:18 pm NW 15.9 22.0----29.93- 65.7 65.3----
2024-07-17 03:12 pm N 17.1 25.1----29.93- 65.5 65.3----
2024-07-17 03:06 pmNNW 13.0 22.0----29.92- 65.8 65.3----
2024-07-17 03:00 pmNNW 15.0 21.0----29.92+0.03 66.2 65.3----
2024-07-17 02:54 pmNNW 11.1 19.0----29.92- 66.7 65.3----
2024-07-17 02:48 pmNNW 11.1 15.9----29.92-- 65.3----
2024-07-17 02:42 pmNNW 13.0 27.0----29.92-- 65.3----
2024-07-17 02:36 pmNNW 11.1 22.0----29.91-- 65.3----
2024-07-17 02:30 pmNNW 15.0 24.1----29.91- 66.7 65.3----
2024-07-17 02:24 pm NW 11.1 17.1----29.91- 66.7 65.3----
2024-07-17 02:18 pm NW 12.0 20.0----29.91- 66.4 65.3----
2024-07-17 02:12 pmNNW 15.0 22.0----29.91- 66.6 65.3----
2024-07-17 02:06 pmWNW 12.0 20.0----29.91- 66.0 65.3----
2024-07-17 02:00 pm NW 11.1 19.0----29.91+0.02 66.6 65.5----
2024-07-17 01:54 pmNNW 11.1 20.0----29.91- 67.3 65.5----
2024-07-17 01:48 pmNNW 11.1 20.0----29.91- 66.9 65.3----
2024-07-17 01:42 pmNNW 15.9 21.0----29.91- 65.5 65.3----
2024-07-17 01:36 pmNNW 12.0 17.1----29.90- 66.4 65.3----
2024-07-17 01:30 pmNNW 13.0 18.1----29.90- 66.7 65.3----
2024-07-17 01:24 pm NW 15.0 19.0----29.90- 66.6 65.3----
2024-07-17 01:18 pmNNW 13.0 19.0----29.90- 66.0 65.3----
2024-07-17 01:12 pmNNW 9.9 17.1----29.90- 66.7 65.3----
2024-07-17 01:06 pm NW 11.1 17.1----29.90- 66.9 65.3----
2024-07-17 01:00 pmNNW 12.0 15.9----29.90+0.02 66.0 65.3----
2024-07-17 12:54 pm NW 8.9 18.1----29.90- 65.8 65.3----
2024-07-17 12:48 pmNNW 14.0 19.0----29.90- 64.6 65.3----
2024-07-17 12:42 pmNNW 12.0 18.1----29.90- 64.6 65.3----
2024-07-17 12:36 pm NW 7.0 11.1----29.90- 63.7 65.3----
2024-07-17 12:30 pmNNW 8.9 13.0----29.90- 62.1 65.3----
2024-07-17 12:24 pmNNW 11.1 18.1----29.90- 61.3 65.3----
2024-07-17 12:18 pmNNW 15.0 27.0----29.90- 64.2 65.3----
2024-07-17 12:12 pm NW 8.0 12.0----29.90- 66.7 65.3----
2024-07-17 12:06 pm NW 13.0 18.1----29.90- 65.7 65.3----
2024-07-17 12:00 pm NW 13.0 18.1----29.89+0.02 66.7 65.3----
2024-07-17 11:54 amNNW 14.0 18.1----29.89- 65.8 65.3----
2024-07-17 11:48 amNNW 9.9 21.0----29.89- 65.5 65.3----
2024-07-17 11:42 amNNW 12.0 19.0----29.89- 65.3 65.3----
2024-07-17 11:36 amNNW 14.0 19.0----29.89- 64.6 65.3----
2024-07-17 11:30 amNNW 12.0 20.0----29.89- 64.4 65.3----
2024-07-17 11:24 am NW 11.1 18.1----29.89- 65.3 65.3----
2024-07-17 11:18 amNNW 12.0 17.1----29.89- 65.3 65.3----
2024-07-17 11:12 am NW 12.0 18.1----29.89- 65.1 65.3----
2024-07-17 11:06 amNNW 11.1 15.0----29.89- 64.6 65.3----
2024-07-17 11:00 amNNW 11.1 15.0----29.89+0.03 64.4 65.3----
2024-07-17 10:54 amNNW 11.1 19.0----29.89- 63.9 65.3----
2024-07-17 10:48 amNNW 14.0 21.0----29.89- 64.4 65.3----
2024-07-17 10:42 amNNW 8.9 17.1----29.89- 65.5 65.3----
2024-07-17 10:36 amNNW 8.9 18.1----29.89- 65.3 65.3----
2024-07-17 10:30 amNNW 11.1 18.1----29.88- 65.3 65.3----
2024-07-17 10:24 amNNW 8.9 15.0----29.88- 65.1 65.3----
2024-07-17 10:18 am N 13.0 19.0----29.88- 64.2 65.3----
2024-07-17 10:12 amNNW 14.0 19.0----29.88- 64.0 65.3----
2024-07-17 10:06 amNNW 15.0 21.0----29.88- 64.2 65.3----
2024-07-17 10:00 am NW 9.9 14.0----29.88+0.03 64.8 65.3----
2024-07-17 09:54 amNNW 9.9 15.9----29.88- 64.8 65.3----
2024-07-17 09:48 amNNW 8.9 14.0----29.88-- 65.3----
2024-07-17 09:42 am NW 8.9 11.1----29.87-- 65.3----
2024-07-17 09:36 amNNW 11.1 14.0----29.87-- 65.3----
2024-07-17 09:30 amNNW 12.0 15.0----29.87- 63.7 65.3----
2024-07-17 09:24 am NW 9.9 14.0----29.87- 63.9 65.3----
2024-07-17 09:18 amNNW 8.9 15.0----29.87- 63.3 65.3----
2024-07-17 09:12 amNNW 12.0 15.9----29.87- 63.0 65.5----
2024-07-17 09:06 amNNW 9.9 15.9----29.87- 62.8 65.5----
2024-07-17 09:00 amNNW 6.0 8.9----29.87+0.04 63.0 65.5----
2024-07-17 08:54 amNNW 8.9 15.9----29.87- 62.2 65.5----
2024-07-17 08:48 amNNW 8.0 11.1----29.87- 62.6 65.5----
2024-07-17 08:42 amNNW 5.1 8.9----29.87- 62.6 65.5----
2024-07-17 08:36 amNNW 6.0 8.0----29.87- 61.9 65.5----
2024-07-17 08:30 amNNW 7.0 8.9----29.86- 61.9 65.5----
2024-07-17 08:24 amNNW 8.0 9.9----29.86- 61.5 65.5----
2024-07-17 08:18 amNNW 5.1 8.0----29.86- 61.2 65.5----
2024-07-17 08:12 amNNW 6.0 8.9----29.86- 60.8 65.7----
2024-07-17 08:06 amNNW 5.1 7.0----29.86- 60.8 65.7----
2024-07-17 08:00 amNNW 5.1 8.0----29.86+0.04 60.4 65.7----
2024-07-17 07:54 amNNW 6.0 8.0----29.86- 60.3 65.7----
2024-07-17 07:48 amNNW 6.0 8.9----29.86- 59.9 65.7----
2024-07-17 07:42 am NW 5.1 8.0----29.86- 59.9 65.7----
2024-07-17 07:36 amNNW 5.1 6.0----29.85- 59.7 65.7----
2024-07-17 07:30 am NW 4.1 5.1----29.85- 59.7 65.7----
2024-07-17 07:24 am NW 4.1 6.0----29.85- 59.2 65.7----
2024-07-17 07:18 amNNW 2.9 6.0----29.85- 59.2 65.8----
2024-07-17 07:12 am NW 4.1 6.0----29.85- 59.2 65.8----
2024-07-17 07:06 amNNW 4.1 6.0----29.85- 58.8 65.8----
2024-07-17 07:00 amNNW 4.1 6.0----29.85+0.03 58.8 65.8----
2024-07-17 06:54 am NW 4.1 5.1----29.85- 58.6 65.8----
2024-07-17 06:48 amNNW 4.1 7.0----29.85- 58.6 65.8----
2024-07-17 06:42 amNNW 5.1 7.0----29.84- 58.6 65.8----
2024-07-17 06:36 amNNW 5.1 7.0----29.84- 58.5 66.0----
2024-07-17 06:30 amNNW 5.1 7.0----29.84- 58.8 66.0----
2024-07-17 06:24 amNNW 5.1 7.0----29.83- 59.0 66.0----
2024-07-17 06:18 amNNW 5.1 8.0----29.83- 59.2 66.0----
2024-07-17 06:12 amNNW 6.0 7.0----29.83- 59.2 66.0----
2024-07-17 06:06 am NW 5.1 7.0----29.83- 59.2 66.0----
2024-07-17 06:00 amNNW 5.1 8.0----29.83+0.00 59.0 66.0----
2024-07-17 05:54 amNNW 4.1 5.1----29.83- 59.2 66.0----
2024-07-17 05:48 am NW 4.1 7.0----29.83- 59.0 66.0----
2024-07-17 05:42 amNNW 5.1 6.0----29.83- 58.6 66.2----
2024-07-17 05:36 amNNW 4.1 6.0----29.83- 58.6 66.2----
2024-07-17 05:30 amNNW 5.1 6.0----29.83- 59.0 66.2----
2024-07-17 05:24 am NW 5.1 6.0----29.83- 59.0 66.2----
2024-07-17 05:18 am NW 5.1 7.0----29.83- 58.8 66.2----
2024-07-17 05:12 amNNW 5.1 6.0----29.83- 58.6 66.4----
2024-07-17 05:06 am NW 4.1 5.1----29.83- 58.5 66.4----
2024-07-17 05:00 amNNW 4.1 6.0----29.82+0.00 58.1 66.4----
2024-07-17 04:54 amNNW 5.1 6.0----29.82- 57.7 66.4----
2024-07-17 04:48 am N 5.1 5.1----29.82- 57.7 66.4----
2024-07-17 04:42 amNNW 5.1 5.1----29.82- 58.1 66.4----
2024-07-17 04:36 am N 5.1 5.1----29.82- 57.9 66.4----
2024-07-17 04:30 am N 4.1 4.1----29.82- 58.3 66.6----
2024-07-17 04:24 amNNW 1.9 2.9----29.82- 58.6 66.6----
2024-07-17 04:18 amNNW 1.9 2.9----29.82- 59.4 66.6----
2024-07-17 04:12 am NW 1.9 2.9----29.82- 59.0 66.6----
2024-07-17 04:06 amNNW 2.9 4.1----29.82- 58.5 66.6----
2024-07-17 04:00 amNNW 2.9 2.9----29.82+0.00 57.9 66.6----
2024-07-17 03:54 amNNW 2.9 4.1----29.82- 58.1 66.6----
2024-07-17 03:48 am N 2.9 5.1----29.83- 57.4 66.6----
2024-07-17 03:42 am N 4.1 4.1----29.83- 56.7 66.7----
2024-07-17 03:36 am N 2.9 4.1----29.82- 56.7 66.7----
2024-07-17 03:30 amNNW 1.9 1.9----29.82- 57.4 66.7----
2024-07-17 03:24 am NW 1.9 1.9----29.83- 57.4 66.7----
2024-07-17 03:18 am NW 1.9 1.9----29.83- 57.7 66.7----
2024-07-17 03:12 am N 2.9 4.1----29.83- 57.2 66.7----
2024-07-17 03:06 am N 2.9 2.9----29.83- 56.3 66.9----
2024-07-17 03:00 am N 1.9 2.9----29.83+0.01 56.5 66.9----
2024-07-17 02:54 am NW 1.0 1.9----29.83- 57.9 66.9----
2024-07-17 02:48 amNNW 1.0 1.0----29.83- 57.6 66.9----
2024-07-17 02:42 am- 0.0 1.0----29.83- 58.1 66.9----
2024-07-17 02:36 am- 0.0 1.0----29.83- 58.1 66.9----
2024-07-17 02:30 am- 0.0 1.0----29.83- 57.9 66.9----
2024-07-17 02:24 amSSE 1.0 2.9----29.83- 57.7 67.1----
2024-07-17 02:18 am SE 2.9 2.9----29.83- 57.7 67.1----
2024-07-17 02:12 am N 1.0 1.9----29.83- 58.6 67.1----
2024-07-17 02:06 am N 1.9 1.9----29.83- 57.7 67.1----
2024-07-17 02:00 amNNW 1.9 2.9----29.83+0.02 57.2 67.1----
2024-07-17 01:54 amNNW 2.9 4.1----29.82- 57.4 67.1----
2024-07-17 01:48 am N 4.1 4.1----29.82-- 67.1----
2024-07-17 01:42 amNNW 1.9 1.9----29.82-- 67.1----
2024-07-17 01:36 amNNW 1.0 1.9----29.82-- 67.1----
2024-07-17 01:30 amNNW 1.9 1.9----29.82- 57.9 67.1----
2024-07-17 01:24 amNNW 1.9 2.9----29.83- 57.9 67.1----
2024-07-17 01:18 am N 2.9 2.9----29.83- 58.3 67.3----
2024-07-17 01:12 amNNW 2.9 2.9----29.82- 58.5 67.3----
2024-07-17 01:06 amNNW 2.9 4.1----29.82- 58.3 67.3----
2024-07-17 01:00 am N 4.1 5.1----29.82+0.01 58.6 67.3----
2024-07-17 12:54 am N 4.1 4.1----29.82- 58.8 67.3----
2024-07-17 12:48 amNNW 4.1 4.1----29.82- 59.4 67.3----
2024-07-17 12:42 amNNW 2.9 4.1----29.82- 60.1 67.3----
2024-07-17 12:36 am NW 1.9 2.9----29.82- 60.1 67.3----
2024-07-17 12:30 amNNW 2.9 2.9----29.82- 60.1 67.3----
2024-07-17 12:24 am N 2.9 2.9----29.82- 59.7 67.3----
2024-07-17 12:18 am N 2.9 2.9----29.82-- 67.3----
2024-07-17 12:12 am N 2.9 4.1----29.82-- 67.3----
2024-07-17 12:06 am N 4.1 5.1----29.82-- 67.3----
2024-07-17 12:00 am N 4.1 5.1----29.82+0.02 61.2 67.3----
2024-07-16 11:54 pmNNW 1.9 4.1----29.81- 61.2 67.3----
2024-07-16 11:48 pm N 2.9 4.1----29.81- 61.5 67.3----
2024-07-16 11:42 pmNNW 2.9 4.1----29.81- 61.5 67.3----
2024-07-16 11:36 pm N 2.9 4.1----29.81- 61.7 67.3----
2024-07-16 11:30 pmNNW 2.9 4.1----29.81- 61.9 67.3----
2024-07-16 11:24 pmNNW 1.9 4.1----29.81- 61.9 67.3----
2024-07-16 11:18 pmNNW 2.9 4.1----29.81- 62.4 67.3----
2024-07-16 11:12 pmNNW 2.9 4.1----29.81- 63.0 67.3----
2024-07-16 11:06 pmNNW 1.9 4.1----29.81- 63.3 67.3----
2024-07-16 11:00 pmNNW 2.9 2.9----29.81+0.03 63.5 67.3----
2024-07-16 10:54 pm NW 1.9 2.9----29.81- 63.7 67.3----
2024-07-16 10:48 pm NW 1.9 2.9----29.81- 63.9 67.3----
2024-07-16 10:42 pmWNW 2.9 4.1----29.81- 64.0 67.3----
2024-07-16 10:36 pmNNW 4.1 6.0----29.81- 64.2 67.3----
2024-07-16 10:30 pmNNW 4.1 6.0----29.80- 64.4 67.3----
2024-07-16 10:24 pmNNW 5.1 7.0----29.80- 64.4 67.3----
2024-07-16 10:18 pmNNW 5.1 8.0----29.80- 64.6 67.3----
2024-07-16 10:12 pmNNW 5.1 8.9----29.80- 64.9 67.3----
2024-07-16 10:06 pmNNW 7.0 8.0----29.80- 65.3 67.3----
2024-07-16 10:00 pm N 7.0 8.0----29.80- 65.7 67.3----
2024-07-16 09:54 pmNNW 5.1 8.9----29.80- 66.2 67.3----
2024-07-16 09:48 pmNNW 4.1 6.0----29.80- 66.7 67.3----
2024-07-16 09:42 pm NW 2.9 5.1----29.80- 66.9 67.3----
2024-07-16 09:36 pm NW 2.9 5.1----29.80- 66.9 67.3----
2024-07-16 09:30 pmWNW 4.1 6.0----29.80- 66.9 67.1----
2024-07-16 09:24 pmWNW 5.1 7.0----29.80- 67.3 67.1----
2024-07-16 09:18 pmWNW 5.1 8.9----29.80- 67.6 67.1----
2024-07-16 09:12 pmWNW 6.0 8.9----29.80- 68.0 67.1----
2024-07-16 09:06 pm NW 7.0 8.9----29.80- 68.9 67.1----
2024-07-16 09:00 pm NW 5.1 7.0----29.79+0.03 69.3 67.1----
2024-07-16 08:54 pmNNW 4.1 6.0----29.79- 69.4 67.1----